Theta_e
309 309 309 309 309 309 310 311 312 313 313 313 313 313 312 314 313 312 308 305 303 301 299 296 294 292 290 289 288 287 286 286 286 285 285 285 285 285 285 285 284 283 283 283
307 306 307 307 308 308 309 309 309 310 311 311 310 312 312 312 313 311 307 304 301 298 297 294 291 290 288 286 286 285 285 285 285 285 284 284 284 284 283 283 283 282 282 281
309 308 308 308 309 309 309 309 309 312 311 311 311 312 311 311 312 310 306 302 297 295 293 291 290 288 287 285 285 285 284 284 284 284 284 283 284 283 283 282 282 281 281 281
310 307 309 307 308 309 309 309 309 309 310 311 312 310 309 308 308 306 302 297 294 293 291 290 288 286 284 284 284 284 284 284 283 283 283 283 283 283 282 282 281 281 280 280
309 308 307 307 308 312 310 309 309 309 310 310 308 305 303 303 304 301 297 294 293 291 290 288 286 285 284 284 283 283 283 283 283 282 282 282 282 282 282 282 281 281 279 279
308 307 308 310 307 306 309 312 309 309 310 310 306 309 308 299 297 295 295 293 291 290 288 286 286 286 285 283 283 283 283 283 283 282 282 282 282 282 281 281 281 281 280 279
310 309 308 307 306 306 308 309 307 306 307 308 307 302 298 296 294 293 292 290 289 287 287 287 287 286 284 283 283 283 282 282 282 282 282 282 281 281 281 281 281 281 280 279
309 309 309 307 307 308 308 305 305 305 305 304 297 295 295 293 291 289 289 288 287 286 286 286 287 285 283 283 282 282 281 282 282 282 281 281 282 282 281 281 281 281 281 280
307 308 309 307 307 307 304 305 305 305 304 300 295 292 291 290 289 288 288 288 288 287 286 286 285 284 283 283 282 281 281 281 281 281 281 281 281 281 282 281 281 281 280 279
307 308 308 308 305 302 302 303 303 303 302 298 294 291 290 289 288 288 288 288 288 287 286 287 286 285 283 282 282 281 281 281 280 280 280 281 281 279 279 279 279 279 279 277
308 307 306 305 304 303 301 301 300 299 299 295 293 291 290 289 289 289 288 287 287 287 287 287 286 285 284 284 283 282 281 281 280 280 280 279 278 278 277 275 275 276 276 276
309 306 307 306 305 303 302 299 297 296 295 294 292 291 290 289 289 288 287 287 287 287 287 285 285 284 284 283 282 281 281 281 281 281 280 280 280 279 278 277 275 274 274 273
305 303 303 302 302 302 299 297 296 295 293 292 292 290 290 289 288 287 287 287 287 286 286 285 284 283 282 282 281 281 281 280 279 280 280 280 279 280 279 278 277 275 273 272
303 300 299 299 298 297 296 295 294 294 292 291 290 290 289 288 287 287 287 287 286 286 284 283 282 281 280 280 280 279 279 279 280 279 279 279 278 278 278 278 277 275 273 272
300 299 299 298 296 295 294 294 293 292 291 290 290 289 288 288 287 287 287 286 285 285 284 283 281 280 280 279 279 279 279 279 279 278 277 277 278 277 277 277 276 275 272 272
298 297 297 296 294 294 294 293 292 291 290 290 289 289 288 288 287 286 285 285 284 284 283 282 281 280 279 279 279 278 278 278 278 278 277 277 276 276 276 275 275 274 271 271
297 296 295 294 293 293 293 292 291 290 289 289 289 288 288 287 286 285 284 283 282 282 281 281 280 279 279 278 279 279 278 276 276 276 276 275 275 275 274 274 273 273 271 271
297 296 295 294 293 292 292 291 290 289 289 288 287 287 286 285 285 283 282 282 282 281 281 281 279 279 278 278 279 278 278 277 276 276 275 275 274 273 273 272 272 271 271 270
295 295 295 293 292 291 291 290 289 288 288 287 286 285 284 283 283 282 282 281 281 281 281 279 278 278 277 277 277 276 276 276 275 274 274 273 273 272 272 271 271 270 270 269
294 293 292 291 291 290 289 289 288 288 287 287 286 284 283 283 283 283 280 280 280 280 280 279 278 277 277 276 276 276 275 275 274 274 273 273 272 271 271 271 270 269 269 268
292 291 290 290 289 289 289 288 288 287 287 286 285 284 284 284 283 282 281 280 280 280 279 278 277 277 276 276 275 275 275 274 273 273 273 272 271 270 270 270 269 269 268 268
291 290 289 289 289 288 288 288 287 287 286 286 284 284 284 283 282 281 280 280 280 278 278 277 276 277 276 275 275 275 274 274 273 273 272 271 270 270 270 270 269 269 269 269
290 290 289 289 288 288 288 288 287 287 287 286 285 285 284 283 281 280 279 278 279 279 277 277 279 277 276 275 275 274 273 273 273 272 271 271 271 270 270 270 270 270 270 269
290 290 289 289 288 288 288 287 287 287 286 286 285 285 284 282 280 280 279 279 279 279 277 278 277 276 275 275 274 274 273 273 272 272 272 271 271 270 270 270 270 270 270 269
290 290 289 289 288 287 286 287 286 286 286 285 285 284 283 281 281 279 279 279 279 278 277 277 276 276 275 274 273 273 273 272 272 272 271 271 270 270 270 270 269 269 269 269
290 289 289 289 289 288 286 285 285 283 283 283 283 283 282 281 280 279 279 280 279 277 277 277 276 275 274 273 273 272 272 272 271 271 271 270 270 270 270 270 269 269 269 269
290 289 289 288 288 287 286 285 285 284 284 283 282 282 281 280 280 280 280 278 277 277 277 277 276 275 274 273 272 272 272 271 271 271 270 270 270 270 270 269 269 269 269 269
Wind_Speed
18 20 20 21 22 25 23 24 22 25 22 25 21 19 7 14 9 14 16 16 14 12 10 8 6 5 5 4 4 4 3 5 6 8 9 10 10 11 13 14 16 17 18 19
20 20 21 23 26 27 27 28 27 28 29 26 29 13 13 11 16 17 16 15 14 12 11 9 7 6 5 4 3 3 4 4 5 6 8 9 10 11 12 13 14 17 18 19
18 14 16 16 26 24 26 26 25 22 26 25 21 2 11 14 10 15 16 16 14 14 12 10 8 7 6 6 5 4 5 5 6 7 8 9 10 11 12 13 13 16 19 20
16 16 18 20 22 20 14 18 21 23 23 18 13 3 2 2 11 13 17 17 16 16 13 11 9 8 8 6 5 4 5 5 7 7 8 10 10 10 11 13 16 17 20 22
15 17 20 25 23 13 9 24 21 24 23 19 5 7 4 4 7 16 22 21 20 17 15 13 12 10 8 7 6 6 6 6 7 7 7 9 9 10 11 12 15 18 21 23
15 18 21 25 21 19 6 16 17 20 14 6 8 6 3 13 15 19 21 19 18 16 15 13 11 10 8 8 7 7 7 7 7 7 8 9 9 11 12 13 14 14 17 21
17 17 20 25 26 7 10 12 6 7 5 7 8 3 19 19 16 16 18 17 16 16 15 13 11 9 9 9 9 8 8 8 7 7 8 9 10 11 11 12 14 14 15 18
11 14 20 8 6 12 5 1 2 1 3 7 13 17 19 18 17 17 17 18 16 15 15 14 12 10 11 11 10 9 8 7 8 9 9 10 10 12 14 13 13 14 15 16
15 11 5 5 7 5 4 5 1 5 7 13 15 16 17 17 17 17 18 17 15 14 13 11 11 10 11 11 9 8 7 7 8 9 9 11 11 12 12 13 13 13 14 16
11 13 15 8 8 4 4 3 5 7 10 13 16 17 17 18 19 19 17 16 15 15 15 13 11 10 10 10 10 8 7 8 8 9 9 12 10 12 13 12 12 13 14 16
15 17 7 11 15 15 11 8 8 8 11 13 15 18 18 19 18 17 17 16 14 14 14 13 12 11 11 10 9 8 8 7 7 7 7 8 10 12 11 15 14 14 14 14
10 8 10 13 6 17 13 11 10 10 12 13 14 19 18 20 18 17 16 15 14 14 14 14 12 11 10 9 8 9 8 7 7 5 6 6 5 10 14 16 16 15 15 15
14 6 5 4 2 9 11 11 10 9 10 17 16 18 19 19 18 17 15 15 15 15 14 14 13 13 13 12 11 11 9 7 6 6 6 5 5 3 8 13 18 18 16 16
9 6 2 6 4 8 10 11 10 11 13 15 17 19 19 18 18 16 15 15 15 15 15 14 13 12 11 10 9 8 6 9 6 6 5 4 4 4 5 4 5 8 14 16
10 9 8 8 10 11 12 13 14 14 15 17 18 18 18 18 17 15 15 16 16 16 14 14 12 12 11 10 9 8 6 5 5 4 4 5 4 4 4 5 6 8 10 12
9 7 8 11 12 13 14 15 15 16 17 19 20 18 17 16 16 16 16 16 17 16 14 16 14 12 11 9 7 6 5 5 7 4 4 4 4 4 4 5 5 6 9 13
13 11 11 12 13 15 15 14 14 16 17 18 18 18 17 17 17 17 16 15 18 20 17 14 12 12 10 10 8 5 4 3 4 4 3 3 4 4 4 5 5 5 7 12
8 7 10 11 14 15 15 14 15 16 17 17 19 21 21 21 19 20 21 20 18 14 14 13 11 11 9 9 8 6 5 4 3 3 3 3 3 3 4 4 4 5 5 9
7 7 9 12 14 15 15 15 16 17 19 22 23 24 22 21 22 21 19 18 17 16 15 14 13 11 9 8 7 5 5 5 4 3 2 1 2 2 3 3 4 5 5 6
7 8 11 13 14 15 17 18 20 20 21 21 20 20 20 20 19 20 18 16 14 13 14 14 13 10 8 8 7 5 5 5 4 3 3 2 2 1 1 1 3 3 4 5
10 12 14 15 15 15 16 17 20 20 19 19 20 20 20 19 20 20 21 16 18 14 14 14 12 10 9 8 7 6 6 5 4 3 3 2 2 2 1 1 1 2 2 3
12 14 14 14 15 16 16 16 16 16 18 19 18 19 19 20 20 19 17 14 18 17 15 14 12 11 9 8 7 7 6 6 6 5 4 3 3 3 3 2 1 0 1 2
12 12 14 16 16 15 15 15 15 15 17 19 19 18 19 18 19 18 16 17 18 18 16 15 13 11 10 9 8 7 7 7 7 6 6 6 5 5 4 3 3 2 1 2
12 13 14 15 14 15 15 15 14 14 16 17 17 17 19 18 16 15 14 18 19 18 16 14 13 11 11 10 8 8 8 9 8 7 7 6 7 6 5 5 4 3 3 3
12 14 14 14 13 11 12 13 14 15 16 16 17 19 18 15 15 17 18 17 17 18 17 14 13 11 11 10 10 10 10 9 9 8 8 9 8 7 7 6 5 5 4 5
12 11 11 12 11 11 12 14 12 13 15 16 17 19 19 17 18 19 18 17 17 19 16 14 13 13 12 11 11 11 11 9 9 10 10 9 9 8 8 7 6 6 6 8
12 12 11 12 12 13 13 14 15 15 17 17 18 20 19 20 20 18 18 17 18 19 16 16 14 13 12 11 11 11 11 11 12 11 11 10 10 9 8 8 8 8 9 9
Wind_Direction
268 272 278 281 284 277 276 269 259 271 264 267 270 275 291 233 197 187 180 182 183 183 177 170 156 133 122 106 99 90 60 34 25 26 25 22 23 28 29 26 24 24 21 16
268 268 269 271 269 266 267 268 272 275 277 279 290 300 265 241 192 187 185 186 178 177 171 163 151 148 140 147 123 102 70 50 39 35 33 32 28 32 33 32 30 26 28 24
262 281 292 279 263 270 271 269 269 271 272 277 271 224 238 243 211 193 188 178 177 172 166 155 153 147 151 145 132 109 85 70 57 45 41 42 39 38 38 36 36 35 36 37
266 270 254 259 270 283 300 293 288 287 290 292 311 144 89 213 195 187 175 173 169 168 167 156 148 158 154 141 133 117 99 82 68 59 51 47 47 47 47 42 39 37 34 36
254 259 263 273 267 277 271 272 276 282 280 281 115 135 105 113 174 167 171 170 179 179 181 169 166 154 144 135 131 123 115 96 79 67 60 57 52 51 49 44 41 34 32 33
244 248 255 257 288 288 317 267 281 264 261 191 167 232 152 151 143 158 175 185 180 179 169 168 162 158 148 139 132 127 118 104 90 81 69 61 56 52 47 45 38 36 32 30
235 249 258 270 274 193 233 273 17 342 296 167 200 53 139 160 163 177 174 171 170 164 162 166 156 161 156 149 142 126 115 100 95 86 73 63 51 48 46 41 34 32 32 27
231 247 261 224 123 216 343 45 118 10 191 154 139 142 156 164 160 158 158 154 155 158 167 165 167 165 154 151 137 117 102 102 96 84 76 66 60 48 38 44 35 28 26 26
261 255 212 204 266 256 269 287 248 186 166 167 157 155 159 157 157 156 152 154 157 159 156 152 153 159 159 151 137 122 112 99 90 88 74 55 57 62 50 35 33 27 28 25
261 266 283 256 217 242 251 274 208 183 166 178 168 164 158 155 154 153 157 156 155 155 143 144 153 152 149 141 137 126 113 99 90 85 89 95 58 48 52 49 39 33 26 26
256 269 247 262 243 233 219 228 197 162 168 184 174 166 162 159 159 158 158 157 155 154 150 151 149 144 143 140 136 129 120 108 95 88 70 62 72 77 50 46 47 40 41 24
266 320 281 287 303 223 208 202 195 180 169 168 170 168 163 163 160 160 160 159 161 158 156 152 149 142 141 143 145 141 129 127 123 109 94 86 41 354 8 18 20 26 37 42
281 285 281 287 323 182 197 199 189 174 172 163 164 163 162 159 159 160 159 162 163 160 157 151 154 167 166 165 164 159 159 140 116 102 94 84 72 73 353 0 0 4 15 26
243 220 197 194 201 180 184 176 163 156 151 154 154 155 156 156 156 160 162 162 160 158 153 149 143 147 152 161 163 162 152 131 109 97 86 74 68 55 46 43 9 5 358 13
214 222 262 196 172 168 165 162 157 151 148 149 153 155 157 158 160 161 160 158 157 156 153 149 149 152 158 159 157 144 121 124 112 98 100 94 69 57 52 35 25 9 6 11
197 204 177 169 167 167 170 171 164 157 156 156 156 157 158 160 157 155 157 159 159 158 155 167 167 166 163 162 156 153 153 140 129 108 86 75 70 67 52 43 33 17 5 20
172 182 179 177 177 175 177 174 170 164 160 160 161 161 158 160 157 156 155 156 170 178 177 178 174 169 167 157 135 138 141 142 119 103 98 87 72 62 53 50 48 37 6 21
192 198 196 190 180 175 173 172 169 168 166 164 169 167 167 165 162 162 170 177 180 175 179 179 178 177 175 165 147 151 143 139 133 121 116 110 84 71 63 57 55 48 33 10
184 190 184 176 176 174 172 172 174 172 172 179 180 179 180 173 184 183 176 172 174 175 179 180 181 185 187 183 173 169 163 154 139 152 177 107 96 91 79 71 58 50 39 28
166 159 162 165 171 173 172 178 179 179 186 189 187 180 177 187 185 177 171 169 171 188 184 184 186 192 192 189 176 181 181 182 176 190 172 158 124 95 63 78 78 59 44 33
163 162 170 176 177 176 180 184 184 187 190 192 186 185 188 187 184 182 170 163 187 190 193 189 193 198 200 195 199 206 201 198 203 204 203 215 184 170 168 124 93 66 43 31
165 165 167 171 171 170 183 186 190 190 188 187 187 192 191 187 185 175 174 186 188 192 188 194 197 207 207 204 220 222 218 214 216 217 210 198 190 194 200 202 192 290 8 14
168 171 171 170 169 170 173 180 188 193 192 193 198 199 193 193 185 176 176 187 192 191 192 202 211 211 212 222 229 222 220 221 220 217 221 217 212 212 216 222 233 250 295 340
162 164 166 167 172 175 176 184 187 192 196 201 203 200 194 184 179 184 195 195 196 194 198 205 206 210 220 233 230 227 226 225 227 228 230 230 229 229 233 235 244 257 282 318
168 172 177 180 177 176 181 186 186 192 196 197 200 196 197 191 196 185 201 197 201 199 208 207 209 214 228 235 234 229 229 228 229 234 230 230 230 232 235 240 250 264 285 306
173 176 185 186 184 187 183 184 183 188 186 189 191 193 193 192 189 201 199 198 197 206 210 210 214 222 234 238 234 231 231 235 235 237 233 234 235 237 240 248 258 271 286 294
180 179 183 187 185 191 196 191 190 192 193 193 193 194 191 192 198 196 197 195 201 207 210 215 220 227 237 239 235 234 236 236 237 235 236 238 240 242 246 255 264 274 283 291